Theta_e
333 331 331 326 323 321 319 316 298 303 295 290 289 289 291 298 299 295 296 298 296 301 302 301 299 302 300 299 300 300 301 299 301 291 296 309 324 323 323 325 323 321 322 332 340 339 339 344 350 352 354 354 355 355 356 355 355 356 354 354 354 353 352 351 350 350 349 349 349 348 347 347 348 348 348 348 347 347 347 347 348 347 346 346 346 347 348 348 349 348 348 348 351 353 355 356 355
329 322 321 323 320 319 310 310 297 295 292 287 289 290 294 297 295 294 294 297 300 301 302 301 300 302 302 302 299 300 301 304 303 309 314 320 322 316 321 323 322 320 319 330 340 340 338 338 348 352 352 354 354 353 355 355 355 355 355 354 354 352 352 351 351 351 349 348 349 349 348 347 348 347 347 347 347 347 347 347 349 349 348 347 347 348 348 348 349 349 349 348 350 353 355 355 354
326 321 322 322 319 316 312 306 294 291 287 284 289 292 296 294 293 295 297 298 301 302 300 300 302 302 301 299 298 297 296 307 308 310 315 316 308 312 319 319 320 319 319 326 335 338 340 339 344 351 352 352 353 354 354 355 355 354 352 354 354 352 352 351 352 351 349 348 348 348 350 349 348 347 345 347 347 347 347 347 349 350 349 348 348 348 348 348 349 349 350 349 349 352 354 354 354
329 325 322 316 310 311 304 301 293 288 287 286 287 293 294 294 294 297 298 300 300 299 300 301 299 304 299 297 299 300 301 303 307 308 311 309 311 316 317 317 318 320 325 327 333 335 337 340 344 350 351 352 352 353 354 354 355 355 354 354 353 352 352 351 349 347 349 349 347 346 349 348 349 348 346 346 346 347 347 347 348 349 348 348 348 347 349 348 348 348 349 350 350 351 354 355 354
321 324 322 315 310 304 300 299 294 286 287 287 286 293 294 295 296 297 300 299 298 299 300 302 297 300 302 302 303 296 299 307 306 309 311 315 314 313 316 317 320 324 325 327 339 342 340 340 343 347 350 351 351 351 352 353 353 354 353 353 353 352 351 351 349 348 348 348 349 348 348 347 346 348 347 346 346 345 347 347 349 349 348 347 348 348 348 349 349 349 349 350 350 350 353 354 353
321 321 321 314 307 308 300 292 290 288 291 291 289 292 295 296 297 297 299 300 299 299 300 299 298 299 300 303 305 300 305 299 306 310 311 310 313 315 316 317 321 323 325 326 335 338 339 341 344 348 350 349 350 350 350 351 353 352 353 353 353 352 352 351 351 350 350 350 350 349 349 348 347 347 347 346 346 347 347 347 348 350 349 349 348 348 348 349 350 349 349 349 349 350 352 353 353
313 309 313 309 307 305 295 291 289 288 293 294 292 293 295 297 298 297 298 300 301 300 300 300 298 297 297 303 305 307 309 311 308 309 313 313 314 315 316 316 319 321 324 327 327 334 337 340 345 347 347 347 348 348 348 349 350 350 352 352 351 352 351 351 351 350 347 348 349 349 349 348 348 347 348 349 349 349 349 349 349 350 350 350 350 350 350 350 351 351 350 348 347 349 353 352 353
317 306 308 298 297 296 291 293 290 289 293 296 296 295 296 297 298 297 297 296 297 296 300 299 298 298 297 304 297 304 307 309 311 313 313 313 315 316 316 317 319 320 322 326 328 328 335 337 341 344 345 345 345 346 348 348 349 348 348 350 351 351 351 350 350 349 349 349 349 349 350 349 348 349 349 349 348 348 348 349 349 350 350 350 350 350 349 350 350 349 348 347 347 346 351 352 353
312 309 306 299 294 295 292 291 292 294 294 296 296 303 304 299 298 298 297 300 298 297 297 298 298 293 295 298 298 303 305 308 308 313 310 312 315 315 314 314 314 315 317 321 320 324 328 334 337 341 341 342 343 344 345 347 347 347 347 347 348 349 350 349 350 350 350 349 349 349 349 347 347 347 347 346 349 350 350 349 349 349 349 348 350 348 348 348 348 348 345 346 348 349 350 351 352
306 304 298 297 296 292 291 292 289 294 294 296 296 297 299 299 298 297 296 296 297 296 297 298 297 297 299 297 297 301 302 307 309 308 309 309 311 312 311 311 312 312 312 313 313 314 317 325 328 334 337 340 340 342 342 344 345 346 346 346 346 346 347 347 348 349 349 349 347 349 348 347 347 348 348 348 347 347 348 348 348 347 347 347 347 347 347 347 347 347 347 347 347 350 350 348 351
300 306 304 294 290 289 288 290 291 294 293 296 296 299 299 298 298 297 297 296 297 297 298 298 297 298 298 296 298 306 306 305 305 304 307 308 308 308 308 310 311 311 309 310 311 311 311 313 320 323 327 331 336 339 340 341 341 343 344 345 346 346 345 344 344 345 345 346 349 348 347 345 347 348 346 347 347 347 347 347 347 348 347 346 346 346 346 346 346 347 347 347 348 349 350 349 349
296 295 298 291 290 289 288 288 292 292 295 294 295 298 298 298 297 295 295 295 297 296 297 298 296 298 296 296 297 300 303 303 303 305 306 307 306 307 308 308 310 311 310 308 309 309 309 310 311 317 320 323 325 330 334 337 338 339 340 343 343 344 345 345 345 343 343 344 346 348 347 347 347 348 346 345 346 347 346 346 347 347 346 346 346 346 346 346 346 346 347 347 348 348 349 350 349
299 298 292 291 289 292 290 290 291 293 292 294 295 299 298 299 297 297 296 295 296 294 296 299 299 298 295 295 298 301 300 301 303 304 305 305 306 306 307 307 309 309 309 308 307 308 309 309 310 311 315 318 319 322 324 329 332 336 338 339 340 340 341 342 343 344 344 344 343 341 346 345 344 345 345 346 346 345 345 346 347 347 346 345 345 346 346 347 347 347 347 347 347 347 347 348 346
303 303 296 292 291 293 290 290 290 289 291 295 296 299 300 296 299 296 294 295 296 295 298 301 300 298 295 296 295 296 299 301 301 303 304 304 304 304 305 305 306 306 307 307 305 306 306 307 308 309 310 311 312 315 319 324 327 331 333 334 334 336 337 340 340 342 342 343 342 340 339 339 339 341 342 343 344 343 344 346 346 346 346 345 345 345 346 346 346 346 346 346 345 345 345 347 347
301 302 295 294 291 289 293 290 291 288 291 295 299 297 298 300 297 296 296 295 297 299 301 303 302 298 291 293 292 295 298 299 300 301 302 302 303 302 303 303 303 304 304 305 304 304 304 305 306 306 308 309 310 311 314 317 323 325 328 330 331 333 334 335 336 338 338 338 338 337 335 332 332 334 335 337 340 340 338 339 341 344 345 346 346 346 346 345 345 345 345 346 345 344 344 344 345
304 300 297 293 290 290 291 290 291 289 292 295 298 296 296 298 299 297 300 299 298 300 300 296 301 295 296 294 295 295 297 298 299 299 299 299 300 300 299 300 300 301 302 302 303 303 303 303 304 305 306 307 309 310 312 314 318 321 324 326 327 329 330 331 332 333 331 329 329 329 328 329 328 331 328 331 332 336 335 333 334 341 344 344 344 345 345 344 344 343 344 344 345 344 343 342 342
304 300 293 291 290 290 291 291 289 289 293 296 297 296 294 295 299 299 299 299 296 295 297 297 296 298 294 295 297 296 297 299 300 297 297 296 296 296 296 297 298 299 301 301 302 302 302 301 303 303 303 304 308 308 311 312 315 318 319 320 322 323 325 327 328 326 324 325 326 327 324 328 332 333 334 332 326 329 326 326 331 337 341 340 341 343 343 342 342 342 342 342 343 343 338 336 335
302 296 292 289 291 290 292 293 294 294 292 294 295 296 294 294 295 298 299 297 296 296 295 295 296 295 296 295 296 297 297 296 296 295 295 294 294 293 294 295 296 296 298 299 301 302 301 300 302 302 301 302 306 307 309 311 312 315 314 316 319 320 321 321 325 328 324 330 327 330 332 331 332 334 334 328 329 329 329 324 326 331 337 338 338 341 341 341 341 342 342 342 342 340 334 335 332
298 294 291 289 290 292 296 295 294 293 294 295 296 294 294 295 295 297 294 293 294 293 293 293 292 293 295 295 295 295 296 295 294 294 293 293 293 292 292 293 294 295 296 297 299 301 300 300 301 301 301 301 304 304 306 307 309 309 312 314 317 319 319 320 322 324 329 331 331 332 330 332 332 333 332 330 330 326 329 326 325 328 333 335 335 337 338 339 340 341 342 341 340 335 331 332 330
300 293 290 289 294 295 296 296 295 296 296 295 295 296 294 295 296 298 294 291 292 290 289 290 290 290 292 293 294 293 294 294 294 293 292 293 292 292 292 292 293 293 295 296 297 301 300 299 300 300 300 300 301 302 303 304 306 307 309 310 311 315 317 319 321 322 324 327 329 331 331 332 331 333 327 323 322 329 328 322 323 324 326 328 329 332 333 336 339 339 338 337 334 328 329 330 329
300 292 291 292 294 294 296 296 295 296 296 296 295 294 293 295 296 296 293 291 290 290 291 291 290 290 291 292 293 292 292 292 292 292 292 292 292 293 291 292 291 293 294 296 296 299 299 298 299 300 300 300 300 301 301 301 303 304 306 306 307 311 313 316 318 320 322 323 324 325 328 329 331 332 332 331 329 330 329 329 328 327 326 329 326 331 330 331 332 331 330 327 325 326 327 329 328
297 293 295 295 294 294 296 296 296 296 294 294 293 293 295 297 296 294 293 290 287 289 291 292 292 292 291 291 291 292 291 292 291 291 290 291 292 291 291 291 292 293 294 293 295 296 297 297 297 299 299 298 300 300 300 300 301 302 301 302 305 307 309 311 313 317 320 321 323 323 323 324 326 328 329 330 329 329 329 328 328 328 328 329 328 330 330 328 329 328 326 325 324 326 327 328 328
292 291 296 297 295 295 297 297 296 295 295 293 293 296 295 294 293 293 292 290 291 293 292 292 292 292 292 292 291 290 290 290 290 290 291 290 291 292 291 291 291 291 291 292 294 295 296 296 296 298 297 298 299 299 299 298 299 300 300 301 302 303 305 307 310 314 316 319 321 321 321 321 322 324 326 327 328 329 328 329 329 329 329 330 329 329 330 328 327 326 327 327 325 326 326 327 329
295 291 294 297 297 296 296 296 294 293 294 296 296 296 294 294 291 293 291 291 292 293 293 292 292 292 292 291 291 290 290 289 290 291 291 290 291 291 293 291 291 290 291 292 293 294 294 295 295 297 297 297 297 299 298 297 298 298 299 300 300 302 303 305 308 308 311 314 318 320 319 320 321 321 322 325 326 328 327 327 328 329 329 330 329 330 330 327 324 324 326 329 327 327 326 326 329
295 294 296 296 296 296 297 295 295 295 296 294 292 293 293 294 293 291 290 291 292 292 292 291 291 290 290 289 289 290 289 290 289 290 291 290 291 292 292 291 291 290 290 291 292 292 293 295 294 295 296 296 297 298 296 297 297 297 298 298 299 303 301 303 304 304 306 310 313 316 318 318 319 320 320 322 324 326 327 327 327 328 329 330 330 329 329 326 324 323 326 328 328 328 328 326 328
296 296 296 296 296 297 296 296 296 295 296 293 291 292 293 294 294 290 290 291 292 292 291 290 290 289 288 288 289 288 288 289 290 289 290 290 292 290 290 290 290 289 290 291 291 291 292 293 294 294 295 296 296 296 295 296 296 296 297 297 298 299 300 302 301 302 306 306 305 307 310 314 317 318 319 321 322 323 325 326 326 326 328 330 330 329 328 328 325 324 326 328 327 327 327 326 327
298 296 297 295 295 295 296 296 296 295 294 293 292 290 292 294 293 286 291 291 292 291 289 289 289 288 288 289 289 288 288 289 289 291 290 290 290 289 289 289 289 290 290 290 291 291 293 292 293 294 294 296 295 295 295 295 296 295 296 296 297 297 299 300 300 302 304 302 302 303 306 308 311 314 317 319 321 322 324 325 326 326 326 328 330 330 328 327 326 325 326 327 327 326 326 325 326
297 295 293 294 294 294 294 295 295 296 295 293 293 291 294 294 293 289 291 292 292 290 289 288 288 287 287 288 288 289 288 289 288 288 289 288 288 288 288 288 289 289 289 290 290 292 292 292 293 294 294 295 295 294 294 294 295 295 295 295 295 297 298 298 299 301 301 300 301 302 303 303 304 308 311 314 316 319 321 322 324 324 325 327 329 329 327 327 326 326 326 326 326 325 324 323 325
296 294 290 291 293 293 294 293 294 294 293 294 293 290 290 291 288 291 292 292 290 289 288 287 287 287 287 287 287 287 287 287 287 287 289 288 288 288 288 289 289 288 289 290 291 291 291 292 293 293 294 294 293 293 293 294 294 295 294 294 295 297 297 297 298 299 299 299 300 300 300 300 302 303 305 309 315 319 319 320 322 323 323 325 327 326 325 326 325 325 324 324 324 323 322 322 323
296 293 290 290 289 288 292 295 295 293 294 293 293 284 283 288 290 291 292 290 289 288 287 287 286 286 286 286 286 287 287 287 286 287 288 288 288 288 288 288 290 288 290 289 290 290 292 293 294 295 294 293 294 293 294 293 294 294 294 294 295 295 296 297 298 298 298 298 299 299 299 300 300 301 302 309 316 316 316 318 319 321 323 323 324 326 324 324 325 324 323 323 320 322 323 321 321
290 292 291 285 286 284 291 294 293 292 295 294 293 284 284 288 290 291 291 291 289 287 286 286 286 286 286 286 286 286 287 288 288 288 290 290 287 286 287 287 287 288 289 289 289 289 290 291 293 293 293 292 292 292 293 293 294 293 294 294 294 295 295 296 296 297 297 298 298 298 299 299 299 300 303 310 311 313 315 316 317 319 321 323 323 325 323 323 324 324 323 323 322 322 323 321 321
290 288 283 286 285 284 290 294 292 292 294 293 291 284 283 288 289 290 290 289 288 286 286 286 285 285 285 285 285 285 287 288 290 290 290 287 288 286 286 286 287 288 288 288 289 289 289 290 292 291 291 291 291 292 292 293 293 293 293 295 294 294 294 295 296 296 297 297 297 297 298 298 299 300 303 305 309 313 312 313 315 317 318 320 322 323 323 322 323 323 323 324 322 321 321 320 320
288 287 283 284 285 285 288 292 292 291 292 293 291 284 286 287 290 290 289 288 287 286 285 285 285 285 285 285 285 285 285 286 287 287 288 288 287 286 286 287 287 287 288 288 288 288 289 289 290 290 290 291 291 291 292 292 292 292 292 293 293 294 294 294 295 296 296 296 297 297 297 298 299 300 301 304 310 307 308 310 312 314 315 317 319 321 322 321 321 321 322 323 324 321 321 320 320
283 286 284 286 285 284 282 287 290 292 292 289 289 286 285 286 291 290 289 288 286 285 285 285 285 285 285 284 284 284 285 285 285 286 286 287 286 287 287 289 287 287 287 287 287 288 288 288 289 290 291 291 291 291 291 292 292 292 292 292 293 293 293 294 294 295 295 296 296 296 297 298 298 299 301 305 305 304 306 307 309 310 312 315 316 319 320 322 322 322 321 322 323 323 321 320 319
283 284 283 283 283 284 284 284 286 292 291 289 287 286 286 287 289 289 288 287 286 285 285 284 284 284 284 284 284 284 284 284 285 285 286 286 286 286 286 286 286 286 286 286 287 287 288 288 290 290 290 290 290 291 291 291 291 291 292 292 292 292 292 293 294 294 295 295 295 295 297 297 298 299 301 303 302 302 303 304 306 308 311 313 314 314 318 319 320 322 321 320 322 323 322 321 320
285 285 283 283 281 283 283 286 290 291 288 287 286 285 287 286 287 288 287 287 285 284 284 284 284 284 284 284 284 283 284 285 287 286 286 286 286 287 285 285 285 285 285 286 287 287 288 288 289 289 290 290 290 291 291 290 290 290 290 290 290 290 291 292 293 293 294 294 295 295 296 297 298 298 300 301 301 301 301 302 304 307 309 311 311 310 311 316 318 319 320 320 320 320 321 321 321
287 286 285 284 283 284 287 288 289 289 288 286 287 285 285 285 287 288 287 285 284 284 284 283 283 284 284 283 283 283 283 284 287 286 285 286 287 285 285 284 284 284 285 286 287 287 287 288 288 288 289 289 290 290 290 289 289 289 289 289 288 289 290 291 292 292 293 293 294 295 296 296 296 297 299 300 300 300 301 302 304 305 308 308 309 309 310 309 313 318 319 318 318 318 318 320 320
287 285 283 283 284 284 287 288 290 289 287 282 284 285 286 287 287 287 286 284 283 284 283 283 283 284 284 283 282 282 283 285 285 284 285 285 284 285 285 284 285 283 284 285 285 286 287 287 287 288 289 289 289 290 289 289 289 289 288 288 289 289 289 290 290 291 292 294 294 294 295 295 296 297 298 299 299 300 300 301 302 303 305 307 307 307 307 306 308 310 316 316 318 317 316 318 318
286 284 283 282 284 285 288 289 289 288 288 283 283 284 285 287 288 287 285 285 284 285 284 284 283 283 283 282 282 282 282 283 282 283 284 282 284 284 283 283 283 283 284 284 285 286 286 287 288 288 289 289 289 289 289 289 289 290 289 289 289 289 290 291 291 292 292 292 293 293 294 294 296 297 298 298 299 300 300 300 301 303 305 306 306 305 305 305 306 307 311 316 315 317 316 318 318
284 283 282 282 283 284 280 285 286 288 286 283 284 285 286 287 285 285 286 285 283 284 284 284 284 283 282 283 282 281 281 281 282 282 282 281 281 281 281 282 282 284 284 284 285 286 287 288 288 288 288 289 288 289 290 289 290 290 290 289 289 289 289 290 290 290 290 291 291 293 293 294 294 295 297 298 299 299 300 300 301 302 304 305 305 304 303 303 303 305 307 314 317 314 314 315 318
284 285 283 283 284 284 283 283 285 287 287 287 285 283 281 285 282 282 283 284 284 284 284 283 283 283 283 283 282 282 281 281 281 282 281 281 280 281 281 282 282 283 284 284 285 286 287 287 287 288 288 288 288 288 288 288 289 288 288 288 287 286 287 286 286 286 287 287 287 288 289 292 293 294 295 296 298 299 299 300 301 301 302 304 305 304 303 303 303 304 306 306 313 315 313 314 316
282 285 287 286 286 284 283 284 284 280 279 283 283 276 275 280 283 283 281 282 282 283 282 282 282 283 282 281 281 282 283 282 282 282 282 281 281 281 282 282 282 282 284 284 284 286 286 287 287 287 287 288 287 287 287 288 287 285 284 283 282 282 282 282 282 282 283 283 284 286 288 290 292 293 295 297 298 298 299 299 299 300 301 302 304 304 304 303 302 303 304 304 305 315 316 314 314
282 284 287 285 284 284 283 282 281 275 274 281 284 276 274 279 280 281 281 281 281 282 282 282 282 282 281 281 281 281 281 282 282 281 281 280 280 280 281 281 282 282 283 284 285 286 286 286 286 287 287 287 287 287 287 286 284 284 283 282 282 281 281 282 283 283 283 284 284 284 285 286 288 291 293 295 297 298 298 298 298 299 300 302 303 304 304 303 303 303 304 304 304 306 314 313 313
282 284 285 284 283 282 282 282 281 280 282 283 283 281 276 276 280 282 281 280 280 280 281 281 281 280 280 280 280 280 280 280 281 281 280 280 280 280 281 282 282 283 283 285 285 286 285 285 285 286 286 286 286 286 285 285 283 283 282 281 281 281 281 281 282 282 283 284 283 283 283 284 286 289 292 294 297 298 298 298 298 298 300 302 303 304 304 305 304 305 305 304 304 303 306 314 314
282 285 284 283 282 282 282 281 279 279 278 275 278 281 276 275 278 283 281 279 278 279 280 280 281 280 280 279 280 280 280 281 280 281 280 280 280 281 281 281 282 283 284 284 285 285 285 285 285 285 285 285 285 285 284 284 283 282 281 281 280 281 281 281 282 283 282 282 281 282 282 282 284 286 290 292 295 297 297 297 297 298 299 301 302 303 304 304 304 303 303 303 302 302 302 310 315
285 284 285 284 283 283 282 279 278 278 276 274 278 280 273 276 278 278 280 280 279 279 279 280 280 279 279 280 279 280 280 280 281 281 280 280 280 281 281 282 282 282 283 285 284 284 284 284 284 284 283 284 284 283 283 282 282 282 280 280 279 279 280 280 280 279 279 280 279 280 281 282 283 285 289 292 294 296 297 297 296 296 298 299 298 300 301 302 302 302 302 302 303 302 303 303 312
288 286 284 282 282 283 281 279 278 275 271 277 279 279 278 272 276 278 277 280 282 280 279 279 279 279 279 279 279 280 280 280 280 280 279 280 281 281 281 281 282 282 282 283 284 284 283 284 283 283 283 283 283 282 282 281 281 281 280 279 279 278 278 278 277 277 278 278 278 279 281 282 284 286 289 291 293 295 296 296 296 296 297 297 297 299 299 300 301 301 302 302 301 301 300 301 305
285 282 280 280 280 277 278 273 276 270 272 275 276 279 279 271 274 279 282 278 282 281 279 279 278 278 279 279 279 279 279 279 279 279 279 280 280 280 280 281 281 282 282 283 283 283 283 283 283 282 282 282 282 282 281 281 280 280 279 279 278 277 277 277 276 276 276 277 279 279 280 281 282 285 287 289 290 294 295 296 296 296 296 296 296 298 299 299 300 300 301 300 300 301 301 300 304
282 279 279 276 271 272 267 271 270 269 272 274 275 276 275 275 279 278 283 279 281 282 281 279 278 278 278 278 279 279 279 278 278 279 279 279 279 279 279 280 281 281 282 282 282 282 282 282 282 281 281 281 281 281 280 280 279 279 279 278 278 278 277 277 276 276 277 277 277 277 278 278 279 280 282 283 288 291 292 294 295 295 295 295 296 297 298 298 299 299 300 300 300 300 301 301 301
281 281 277 274 270 267 271 271 271 270 273 276 275 277 273 276 277 280 280 278 280 280 280 279 278 278 278 279 278 278 279 278 279 279 278 278 278 279 280 280 280 281 281 282 282 282 282 282 281 281 280 280 280 280 280 279 279 279 278 278 277 277 276 276 276 276 276 276 277 276 277 277 277 278 279 281 284 286 288 291 293 295 295 296 296 296 297 298 299 299 300 300 300 301 300 300 300
282 281 280 277 275 272 274 272 270 274 273 273 277 272 269 269 274 277 279 279 279 279 279 278 279 278 278 278 278 278 277 277 278 278 279 279 279 279 279 280 280 280 281 281 281 281 281 281 281 280 279 280 280 279 279 278 278 278 278 277 277 276 276 275 275 276 276 275 276 276 276 277 277 278 279 281 283 284 286 288 291 294 295 295 295 296 297 298 299 299 299 299 299 299 300 300 300
280 282 281 277 277 280 277 272 269 269 272 271 270 273 273 274 277 278 278 278 278 278 278 278 278 278 278 277 278 277 277 278 278 278 278 278 278 279 279 280 280 280 280 280 281 281 281 281 280 280 279 279 279 279 278 278 277 277 277 276 276 276 276 275 275 275 275 275 275 276 276 276 277 277 279 281 283 284 286 287 288 291 295 295 295 295 295 295 296 297 297 298 298 300 300 300 300
280 281 277 280 283 281 277 277 276 273 272 273 272 274 277 276 278 277 277 277 277 277 277 277 277 277 277 277 277 277 277 277 277 278 277 278 278 279 279 279 279 280 280 280 281 281 280 280 279 279 279 279 279 278 278 277 277 276 276 276 275 275 274 274 274 274 274 274 275 275 276 276 277 277 278 280 282 285 286 286 286 288 292 294 294 293 293 294 294 295 296 297 297 299 299 300 301
280 277 279 283 285 283 279 273 272 272 268 272 271 273 275 273 270 276 275 275 275 275 276 277 277 276 276 277 277 277 277 278 277 277 278 278 278 279 279 280 279 279 280 280 280 280 280 279 279 278 278 278 278 278 277 277 276 276 275 275 275 275 275 274 274 274 274 274 273 274 275 275 276 276 277 279 282 284 284 284 285 286 289 291 292 292 292 293 293 294 295 296 297 298 299 300 300
281 281 286 280 275 275 277 272 270 269 270 271 275 273 276 275 275 273 274 274 275 275 275 275 275 275 276 276 276 277 276 277 277 277 278 278 278 279 279 279 279 279 280 280 280 280 279 279 279 279 278 278 278 277 277 277 276 275 275 275 275 275 274 274 274 274 274 273 272 273 274 274 275 276 277 278 280 280 281 283 284 285 287 290 292 292 291 292 292 292 293 294 296 297 297 298 299
282 283 280 284 279 279 274 276 274 276 272 272 273 274 274 276 278 276 276 277 276 275 274 275 276 276 276 276 276 276 276 276 277 277 278 278 278 278 278 277 277 278 279 279 279 279 278 278 278 278 278 278 277 276 276 275 275 275 275 275 274 274 274 274 273 273 272 272 272 273 273 273 274 275 276 277 278 278 280 282 283 284 285 287 290 291 290 291 291 292 292 293 294 296 296 297 298
276 277 275 278 280 280 279 276 273 274 272 271 272 270 274 277 279 278 278 278 277 276 276 276 276 276 276 276 276 276 277 277 277 278 277 277 277 278 277 276 277 278 279 279 278 278 278 278 278 278 277 277 276 276 276 275 275 274 274 274 274 274 273 273 273 273 273 272 273 273 273 274 274 275 276 276 276 278 279 280 281 282 282 284 287 290 290 290 290 290 291 292 294 295 295 296 297
279 278 277 279 277 275 272 272 276 274 274 271 270 270 277 277 279 279 279 279 277 277 277 276 276 276 276 277 276 276 276 277 277 277 277 277 277 277 277 277 277 278 278 277 277 277 277 277 277 277 276 276 275 275 275 275 274 274 274 273 273 273 273 273 272 272 272 272 272 272 273 273 273 274 275 275 276 277 278 278 279 280 281 282 284 288 290 290 290 290 290 292 293 293 294 295 297
Wind_Speed
6 4 3 3 1 1 1 0 2 2 4 1 2 2 1 1 1 4 4 3 4 0 0 2 4 4 2 1 0 3 5 4 2 6 2 1 1 1 4 7 9 10 9 3 3 3 2 2 3 2 2 3 1 1 2 4 4 4 7 7 7 9 10 11 10 11 12 12 11 10 10 10 10 10 10 10 10 11 11 11 9 10 11 11 11 11 11 11 11 11 12 12 10 6 8 9 9
5 3 3 3 2 1 1 2 3 1 4 6 3 2 2 2 6 3 5 5 1 0 0 1 1 1 2 3 4 7 11 7 5 7 3 2 7 5 11 10 8 10 9 6 1 2 3 3 3 2 1 3 3 1 2 4 4 4 5 6 7 9 11 11 10 11 11 12 13 11 10 10 11 11 10 11 11 12 12 11 10 11 13 12 12 13 12 11 12 12 12 12 12 7 9 10 9
3 4 5 2 0 1 1 1 1 2 6 5 3 2 1 7 3 2 5 4 2 0 2 2 2 1 2 6 3 4 2 10 11 2 3 3 8 13 13 11 9 9 8 9 3 2 1 4 5 3 1 2 5 5 3 3 5 5 4 5 6 8 9 11 12 13 10 12 11 11 11 10 10 11 11 11 12 12 12 11 10 10 12 13 13 13 13 12 12 13 13 13 13 8 11 11 10
3 1 0 2 2 2 1 2 2 4 4 5 3 5 3 1 3 2 5 4 3 2 3 3 3 1 2 5 3 8 6 4 5 4 2 9 3 8 10 10 10 8 12 10 9 7 2 2 4 2 1 2 4 6 7 5 3 6 7 6 7 8 8 9 10 11 10 9 10 12 9 12 11 12 15 13 12 11 12 12 11 10 12 13 14 14 13 12 12 13 13 13 13 10 12 11 12
2 4 2 1 2 2 1 1 1 4 5 1 4 1 1 2 4 3 1 4 4 6 3 0 2 3 5 8 5 4 5 2 7 6 1 3 6 5 6 8 8 12 12 11 9 8 7 9 7 5 5 5 6 7 8 8 6 5 5 6 7 8 9 9 10 12 13 10 13 11 11 11 12 13 14 10 12 12 11 12 12 12 13 14 14 14 13 13 13 13 13 13 13 12 11 13 13
4 2 1 2 1 2 1 3 3 7 2 3 4 0 1 1 4 2 1 2 5 5 3 4 2 0 5 4 4 5 6 4 2 3 1 6 6 6 5 6 10 12 12 10 8 7 7 10 9 8 10 10 11 10 10 10 9 8 6 6 7 9 8 10 10 13 14 11 11 12 11 13 12 13 12 12 12 12 12 13 13 12 12 12 14 15 15 14 14 14 12 13 13 13 11 13 14
3 3 2 2 1 2 3 2 2 5 3 4 4 3 4 2 1 4 1 2 1 6 3 1 2 4 8 3 8 6 4 3 1 3 2 3 4 6 6 8 9 11 10 10 9 7 8 11 10 9 8 9 10 12 13 13 12 11 9 9 10 10 9 10 11 11 12 13 10 13 13 12 12 12 11 11 10 9 10 10 11 11 10 11 12 13 14 14 14 10 12 13 18 15 10 14 16
0 2 1 3 1 2 2 0 1 3 1 5 5 6 2 3 1 2 2 3 1 2 2 1 4 13 4 8 7 1 5 4 3 3 4 4 6 10 11 11 12 11 11 9 9 6 7 8 8 7 7 8 9 10 12 14 14 15 12 12 12 11 11 10 10 11 13 10 11 12 12 11 11 11 11 10 9 11 11 11 9 9 9 9 9 11 12 13 12 11 9 13 14 18 11 15 16
2 1 1 4 3 2 1 1 1 0 4 4 4 4 4 2 2 1 2 1 2 4 1 3 3 4 2 12 8 1 4 5 4 4 9 10 10 11 12 15 15 13 14 12 12 11 9 11 10 8 7 9 9 11 12 13 14 15 16 16 14 13 12 11 11 11 11 11 12 12 11 8 12 11 9 11 7 7 10 10 9 9 10 10 10 11 12 13 13 12 12 9 14 15 11 16 17
1 2 2 1 2 4 1 0 4 1 4 3 6 3 1 0 1 3 2 8 2 3 3 1 7 10 6 9 2 7 6 7 3 10 11 11 11 11 13 13 12 12 12 12 11 11 11 17 18 14 12 9 10 11 12 12 13 14 15 16 17 16 15 14 13 11 12 11 11 10 9 10 14 11 9 7 6 7 8 9 10 10 11 11 12 13 14 15 15 14 12 10 13 13 10 13 16
2 1 2 2 5 2 2 0 3 2 4 1 3 2 1 0 4 1 3 4 2 3 2 5 5 10 10 5 8 1 5 5 15 13 10 9 10 11 12 10 9 11 12 12 11 11 11 11 17 19 19 17 12 11 12 12 13 14 14 15 15 17 17 16 15 16 14 13 10 10 11 14 14 12 11 8 8 8 9 11 12 12 12 12 11 13 15 15 12 12 11 10 9 11 10 14 16
3 3 4 2 1 1 2 4 3 4 2 2 1 1 1 4 2 2 4 5 0 5 5 3 1 7 9 5 3 4 5 14 11 7 8 8 10 11 10 9 10 9 10 10 10 11 11 9 10 14 18 19 18 15 12 11 11 13 14 15 17 17 17 17 15 15 18 16 14 11 11 12 13 11 11 11 10 9 10 12 13 14 12 10 11 12 13 11 10 11 10 10 10 11 10 11 14
2 1 3 2 1 1 1 5 2 3 1 1 2 1 3 8 2 1 3 4 2 5 3 6 1 4 3 3 3 5 14 11 10 8 8 9 8 9 8 10 9 8 9 10 11 10 10 10 10 10 13 17 16 17 17 16 14 11 11 13 15 17 18 20 19 15 13 15 18 17 13 12 12 12 12 12 12 12 13 13 13 13 12 12 13 13 12 10 9 9 9 11 10 10 9 10 13
1 0 2 1 0 1 0 1 1 4 1 2 1 1 1 2 0 3 5 6 3 4 2 5 2 8 6 4 4 6 7 7 9 9 8 9 8 8 8 8 9 9 8 10 13 12 11 11 11 11 12 12 12 13 14 16 15 16 14 13 14 14 15 17 18 18 16 14 14 14 15 14 13 13 13 13 14 13 14 13 14 13 13 12 13 13 12 11 10 8 9 11 10 10 11 10 14
1 0 1 1 3 1 0 2 3 4 1 0 1 3 3 1 3 4 6 5 9 2 1 15 2 6 3 4 4 5 4 5 9 9 9 9 9 9 8 8 9 9 9 9 11 13 13 12 12 11 11 12 13 11 10 12 16 17 16 16 15 16 16 17 18 18 17 15 15 14 13 14 15 15 14 14 15 15 14 15 15 14 13 14 13 12 12 11 10 8 9 12 11 11 13 11 12
1 2 2 1 2 0 1 2 1 6 1 1 3 6 6 2 0 2 1 4 3 7 11 7 14 5 6 13 4 4 6 8 8 10 11 11 9 8 9 9 9 10 8 9 10 11 11 12 11 10 11 11 11 12 12 12 15 18 17 16 16 14 14 16 16 17 18 18 17 15 14 12 12 13 16 14 15 16 16 13 13 12 14 15 15 13 13 12 10 9 10 12 12 13 15 13 14
2 3 2 3 3 1 2 1 2 1 1 1 2 2 3 0 2 2 4 11 16 8 15 9 8 7 10 7 4 6 7 9 11 12 12 10 8 9 9 8 8 8 8 9 9 10 12 12 13 11 11 12 11 11 10 11 13 17 14 16 17 17 15 14 14 14 14 14 15 16 13 10 9 8 10 9 11 10 11 13 15 15 16 16 15 14 14 13 10 11 12 14 14 15 15 15 16
2 2 2 3 2 1 1 1 0 1 3 0 1 0 6 1 1 1 7 13 12 10 14 8 13 11 8 5 6 7 7 11 10 13 11 10 8 9 10 10 10 10 9 9 8 10 10 11 11 12 11 14 12 11 9 9 9 12 12 11 11 14 14 14 10 9 10 8 13 13 11 9 8 8 9 9 8 10 11 14 14 14 15 16 16 16 16 15 11 11 13 14 14 14 15 9 9
2 0 2 4 1 2 1 1 2 1 1 1 0 3 4 1 1 1 6 3 6 11 9 9 11 10 10 11 9 9 8 9 9 10 10 10 9 10 8 7 9 9 10 9 8 9 9 9 10 10 11 12 12 12 10 10 11 11 10 11 9 11 12 12 12 10 7 8 8 9 9 9 10 8 8 9 9 13 14 14 14 15 16 17 16 17 16 15 13 13 14 14 13 12 7 6 6
1 2 2 3 3 2 1 4 2 4 4 3 2 2 4 3 0 1 5 6 8 7 7 6 9 8 8 6 9 8 9 9 9 10 10 9 8 8 8 8 8 7 7 6 7 6 9 9 10 7 9 11 9 10 10 11 11 11 10 11 11 10 9 9 10 11 10 9 9 8 8 9 10 10 12 15 15 11 10 13 15 16 16 15 16 15 17 14 15 15 15 14 8 5 5 6 7
1 2 2 2 1 3 3 4 4 4 5 1 2 1 3 4 3 3 9 12 7 5 3 9 10 9 7 7 6 6 8 9 8 8 9 8 6 6 6 6 5 6 5 6 6 7 9 9 9 8 9 11 9 9 10 11 11 10 11 12 12 12 11 10 10 9 9 11 11 8 9 8 8 9 9 9 8 9 9 8 9 9 8 9 13 9 7 7 8 6 7 5 4 6 7 8 7
1 2 2 2 2 1 1 4 5 3 5 3 3 5 0 1 6 4 3 9 4 3 5 9 9 8 8 8 5 5 7 6 6 6 6 5 5 5 6 6 5 5 6 7 7 6 7 8 9 7 7 9 8 9 9 10 11 10 11 12 13 12 12 12 11 10 9 9 10 11 10 9 8 8 8 9 9 8 8 8 8 8 8 9 8 8 7 6 6 6 6 6 5 6 8 9 9
2 3 1 0 0 0 1 3 1 5 2 2 1 1 2 6 5 4 12 8 4 5 8 9 10 9 9 7 6 8 7 6 6 6 6 8 7 5 5 5 6 6 6 6 5 5 7 7 9 7 7 8 7 8 7 8 8 8 9 10 11 11 12 13 12 11 12 12 10 10 10 11 10 9 9 9 9 9 10 9 9 9 9 8 7 7 8 7 8 7 7 7 6 7 8 9 9
2 3 1 2 1 2 2 1 3 4 7 0 0 1 4 8 6 1 11 4 7 7 10 10 9 9 8 10 7 7 5 6 5 6 5 6 7 7 4 7 6 4 5 7 6 6 7 8 8 7 7 7 6 7 7 8 7 8 8 9 9 11 11 11 11 12 13 12 12 11 10 10 10 11 10 9 10 8 9 10 9 9 10 10 8 9 9 8 7 7 7 7 8 8 9 9 8
2 2 1 2 1 3 3 1 2 1 1 0 6 2 4 6 8 5 6 6 7 8 9 10 10 9 8 8 7 6 7 6 7 6 5 5 6 7 6 5 5 5 6 8 7 6 6 7 7 7 7 7 7 7 8 8 8 8 8 8 9 10 10 9 11 13 12 11 12 13 13 13 12 10 11 11 9 10 9 9 9 9 9 9 9 10 9 8 7 7 8 9 8 9 8 8 8
3 3 0 0 2 2 3 0 0 1 1 3 4 9 6 10 11 5 5 5 6 8 9 9 10 8 7 7 7 6 5 6 6 6 4 3 4 5 6 4 5 6 5 6 6 6 5 7 8 7 7 7 8 8 8 9 9 9 9 9 9 9 9 9 10 9 10 11 12 13 15 14 13 13 12 11 12 12 11 10 10 10 9 9 9 10 11 10 10 8 9 9 9 10 9 10 9
1 1 0 2 6 4 2 3 0 3 2 1 2 4 5 5 7 2 3 5 6 9 8 8 9 7 6 5 5 4 6 5 6 3 3 3 3 5 6 5 5 6 5 6 6 7 6 6 8 7 8 8 9 10 11 12 12 11 11 11 10 10 11 10 9 9 8 10 12 14 13 14 14 14 14 13 12 13 12 11 10 9 9 10 11 11 11 12 11 11 11 10 10 10 10 9 10
3 1 5 6 8 4 3 2 0 1 1 1 3 1 9 6 1 7 11 7 7 11 8 8 7 6 6 5 4 3 4 4 4 5 5 6 6 5 6 5 5 5 5 6 6 6 6 6 8 7 8 9 11 11 12 12 12 12 13 12 12 13 13 11 10 9 8 9 10 13 14 13 13 14 15 15 13 12 12 12 11 10 10 9 11 11 12 12 12 11 11 11 11 11 9 8 9
0 2 4 6 3 2 2 4 1 1 2 1 1 2 5 6 3 7 11 8 7 9 9 8 7 6 5 5 4 4 4 4 5 5 4 2 3 3 5 5 4 5 4 5 6 5 5 6 7 7 6 8 9 11 11 10 10 12 12 12 11 11 12 11 11 10 10 9 9 10 12 15 13 12 14 16 15 12 12 13 13 11 10 9 9 12 13 13 10 10 9 9 9 8 9 9 8
0 1 3 3 3 4 6 1 0 3 2 2 4 5 4 3 7 10 10 10 8 9 7 6 6 5 5 4 4 4 4 5 4 3 1 2 3 4 4 5 4 4 6 5 5 7 6 6 6 6 8 11 12 12 12 10 11 11 12 13 12 12 11 11 11 11 10 9 9 11 11 12 14 13 13 14 12 12 12 12 13 13 11 12 13 12 12 9 10 11 11 10 10 10 10 10 10
1 1 3 1 3 3 3 5 3 3 1 4 2 4 4 3 7 10 9 11 12 9 7 6 6 5 4 4 4 4 4 4 3 0 2 2 3 3 4 5 6 6 6 7 9 9 10 11 9 9 11 12 13 13 13 12 12 12 12 12 13 14 12 11 11 11 10 10 10 10 11 11 12 14 14 13 13 12 11 12 13 12 12 11 11 11 10 12 14 15 12 12 10 10 10 10 11
0 1 3 3 4 5 4 3 5 8 1 3 2 4 6 8 8 9 8 9 10 10 8 7 6 5 4 4 4 4 4 2 1 0 2 3 3 5 5 6 6 6 9 9 11 12 12 11 10 10 11 12 11 12 12 12 12 11 11 12 11 13 13 12 11 11 10 11 11 11 11 11 11 12 13 13 12 10 11 12 12 12 14 13 13 12 10 12 13 14 13 15 13 11 11 11 9
2 1 4 3 0 3 2 3 2 6 2 1 6 5 3 2 6 6 6 9 9 10 8 6 6 5 5 3 4 4 3 1 1 1 3 3 5 6 6 6 9 8 9 10 10 10 10 9 9 10 11 11 10 11 11 11 12 12 12 12 12 12 12 12 11 11 11 11 10 11 13 13 11 11 11 13 10 9 10 12 12 13 13 13 13 15 12 10 11 12 12 14 15 14 13 12 12
2 2 1 1 4 3 3 4 2 2 2 4 4 5 6 2 13 9 7 9 8 9 8 7 6 5 4 4 4 4 3 1 0 1 4 4 7 7 7 8 8 8 7 7 7 8 7 7 7 9 10 9 10 11 12 12 12 12 11 11 12 12 12 12 12 11 11 11 11 12 13 13 11 11 12 11 9 9 9 10 12 14 14 12 13 13 15 12 12 13 14 13 13 14 13 14 13
3 4 5 7 3 2 6 1 3 3 2 5 2 4 9 2 10 10 9 8 9 9 9 8 7 6 5 4 4 3 3 1 0 0 4 5 7 6 6 6 6 5 4 5 6 5 6 7 7 10 10 10 9 10 12 12 13 12 11 12 12 13 11 11 11 11 11 12 12 13 13 12 12 11 12 11 9 8 9 10 11 14 13 12 12 12 13 15 11 14 16 15 15 15 15 16 15
5 5 4 3 4 7 6 5 2 7 4 5 5 6 6 5 9 7 7 7 10 8 6 6 7 6 5 5 4 3 3 1 1 2 5 6 4 4 4 4 4 4 4 4 5 5 8 9 8 9 9 9 9 10 11 11 11 11 13 13 14 13 12 12 12 12 12 12 13 14 12 12 12 12 12 10 9 8 7 9 11 12 12 12 12 11 12 12 15 17 17 18 17 12 13 14 14
2 1 1 7 7 8 5 5 3 2 1 7 9 6 5 5 11 12 8 7 7 9 9 7 6 6 5 5 4 4 3 2 2 2 4 2 2 3 3 3 3 4 4 5 7 7 8 9 9 11 10 8 9 12 12 12 12 13 12 13 15 14 14 14 13 12 12 12 14 14 14 13 13 13 11 10 9 8 8 8 9 11 12 12 12 11 12 14 14 14 15 17 19 16 13 13 15
2 3 4 8 4 8 7 4 2 0 1 3 4 6 7 7 8 10 6 9 12 12 10 8 8 6 6 6 5 4 4 1 2 3 3 2 2 4 3 4 4 4 5 6 7 7 7 7 7 11 9 8 10 11 13 13 12 11 13 14 16 16 15 14 14 13 13 13 14 14 14 14 14 13 12 10 9 8 8 8 8 10 12 12 12 11 13 13 12 14 18 10 12 17 12 14 12
2 4 3 4 8 7 10 4 2 1 2 7 4 6 8 9 11 8 13 15 9 9 10 9 9 7 5 5 5 4 2 0 1 1 2 2 3 4 4 4 4 3 4 5 5 6 6 7 10 11 10 11 11 12 13 14 13 13 14 15 16 16 15 14 14 15 15 15 15 15 14 14 13 12 12 11 10 9 8 8 8 9 11 12 11 11 11 13 14 14 18 16 11 12 13 13 16
3 4 2 8 4 2 6 3 3 2 1 4 5 14 11 8 3 9 11 9 4 5 6 7 8 9 7 7 6 5 4 1 1 3 2 3 3 4 4 4 4 5 6 6 6 7 7 9 11 12 12 12 12 13 14 15 15 15 15 15 15 14 16 16 17 17 16 17 17 15 14 14 14 13 13 12 11 11 8 7 8 8 11 12 13 10 10 12 13 15 16 18 19 17 13 14 19
4 6 5 5 5 5 5 5 4 6 5 4 10 11 9 9 5 4 3 2 7 6 6 6 5 6 7 5 4 5 4 2 2 2 2 3 4 4 4 5 4 4 4 5 5 7 8 11 12 12 13 13 12 14 16 16 15 15 14 16 15 16 15 14 15 15 15 15 18 19 19 18 17 16 14 14 12 11 8 7 7 8 10 12 12 11 9 10 11 12 15 17 20 18 17 15 16
3 6 8 7 3 4 5 4 6 5 6 5 0 9 4 4 12 12 6 5 8 5 9 8 8 7 5 6 6 4 4 2 3 1 1 2 4 4 5 5 4 4 4 4 4 7 9 10 11 13 12 11 12 14 15 13 14 16 17 16 18 18 19 17 15 16 17 18 17 18 20 20 19 16 14 13 13 12 10 8 6 7 9 10 12 12 9 9 10 12 12 14 19 21 19 17 16
0 6 5 4 4 2 3 4 4 5 4 2 1 2 12 3 5 8 7 9 10 5 8 8 8 7 6 6 5 4 4 0 0 1 1 3 4 4 5 5 4 4 4 4 6 8 9 10 10 11 11 11 12 13 14 13 16 15 16 17 17 17 18 16 15 15 15 16 16 17 18 20 21 21 17 13 13 12 10 8 7 7 8 9 11 13 12 10 9 10 11 11 14 16 18 18 21
5 1 4 3 1 4 5 4 5 9 0 4 4 3 11 11 8 8 12 13 11 9 9 9 9 6 6 6 5 4 2 2 1 0 2 3 4 4 5 5 4 5 4 5 7 7 8 9 9 10 11 12 11 12 14 15 14 15 17 18 17 17 17 20 20 18 16 15 15 15 16 18 20 20 18 14 12 13 11 9 7 7 7 8 10 11 11 8 7 8 9 11 11 13 19 19 20
4 2 5 2 4 6 5 4 7 4 4 9 6 5 4 8 4 6 13 9 9 12 12 11 9 7 7 5 5 3 3 2 2 1 2 3 4 5 5 4 3 4 5 5 6 6 7 7 8 9 12 12 10 12 14 14 14 15 15 14 17 16 17 17 17 16 15 15 18 17 16 19 20 20 18 14 12 12 12 10 8 7 7 8 8 8 8 7 7 8 10 11 12 15 15 19 17
2 2 1 2 4 4 4 5 5 3 0 13 8 8 6 12 5 6 4 7 12 14 14 12 9 9 8 7 4 4 1 1 0 0 1 3 4 5 4 2 3 4 4 5 5 5 6 6 9 10 12 11 10 12 13 15 15 14 14 15 17 18 16 15 14 16 16 16 17 20 16 16 17 17 16 12 12 12 12 10 8 8 7 7 8 8 8 7 7 7 9 11 12 16 15 18 18
1 0 3 4 3 5 1 3 1 2 5 17 5 10 8 9 5 10 12 13 17 10 7 7 7 7 7 6 6 4 4 1 1 1 3 4 6 6 3 4 4 4 4 5 6 6 6 8 9 11 12 11 11 13 13 14 14 13 13 16 17 18 19 17 17 16 15 16 15 15 13 14 14 15 14 14 12 13 13 12 10 9 8 7 8 8 8 8 8 8 8 9 11 14 15 20 22
1 1 1 6 8 4 1 2 2 2 9 6 5 11 10 8 5 7 9 1 8 16 19 16 12 10 8 6 5 5 4 2 2 2 4 5 7 5 2 5 5 6 6 7 6 6 7 8 10 13 13 12 11 12 13 13 13 13 13 15 17 17 18 16 18 19 17 18 17 16 14 15 14 15 14 13 13 13 13 12 11 9 8 7 8 7 7 7 7 7 6 7 8 11 13 16 21
3 2 2 3 6 5 4 2 3 7 10 2 0 3 2 15 13 5 11 7 7 14 16 17 14 10 8 6 6 5 4 3 3 4 5 7 4 5 5 4 5 5 6 7 8 7 8 8 10 12 15 13 13 13 13 13 13 14 14 15 16 16 17 18 17 17 14 15 16 18 15 13 12 13 13 17 16 17 16 15 12 9 8 7 7 7 7 7 8 8 7 7 9 11 10 14 16
4 3 3 1 3 2 8 4 3 5 4 2 4 5 7 4 7 8 10 7 8 10 11 10 11 10 8 7 5 4 4 5 5 6 6 3 4 4 3 3 4 5 6 8 7 8 8 9 11 12 14 12 13 13 13 13 14 14 14 14 14 15 17 17 17 16 16 14 13 17 15 15 14 14 16 17 16 18 17 17 18 14 12 8 7 7 7 7 7 8 8 7 8 9 10 14 16
8 3 7 7 5 2 8 1 6 10 7 3 3 2 8 1 3 3 5 6 8 9 9 8 8 8 8 6 6 6 5 5 7 3 2 4 4 4 4 3 4 5 6 6 6 8 9 10 11 12 14 14 13 13 12 14 14 13 13 13 14 14 15 15 15 16 17 16 16 16 15 15 14 15 15 16 17 17 17 17 18 17 12 9 6 6 7 7 7 8 7 7 6 7 10 11 13
3 2 4 2 7 4 9 3 3 5 9 8 4 7 3 2 3 3 5 7 7 7 8 8 7 7 6 6 6 6 5 5 2 1 3 4 4 4 3 3 4 4 5 5 7 9 10 11 11 12 13 14 14 13 13 13 14 13 13 14 15 14 14 15 14 14 15 16 18 18 16 14 14 16 16 17 16 15 15 17 18 19 16 11 7 6 6 6 7 7 7 7 7 5 8 11 11
1 4 5 6 1 4 4 4 0 1 2 16 3 8 4 1 1 1 4 7 6 6 7 7 7 7 6 6 6 5 3 0 1 1 3 4 4 4 3 4 4 4 4 6 9 9 10 11 11 13 14 14 14 13 12 12 13 14 14 14 14 15 17 17 19 17 18 17 18 19 16 15 16 15 16 16 17 15 14 13 16 18 18 13 8 6 6 7 6 6 6 7 8 5 6 9 8
6 3 6 1 2 2 2 5 3 1 5 10 5 9 9 6 8 5 3 7 8 6 8 7 7 7 7 6 6 2 1 1 1 3 3 4 4 4 4 4 4 4 5 9 11 9 8 7 8 12 14 16 16 14 14 13 14 14 14 15 16 16 16 16 15 20 17 16 18 17 17 15 14 15 15 16 16 15 15 15 14 16 17 15 10 7 6 7 6 5 6 7 7 7 8 8 8
3 3 2 1 3 4 1 5 5 4 7 8 5 5 14 10 7 6 10 12 13 10 8 8 7 7 7 5 4 1 0 1 2 3 3 4 4 5 5 5 4 4 6 9 10 9 8 7 9 11 14 14 13 12 14 13 12 11 12 14 15 18 17 15 17 16 16 17 18 18 18 18 17 16 16 16 16 16 16 15 14 14 15 17 12 8 6 7 6 5 5 6 6 7 8 9 8
2 1 2 1 2 4 3 6 3 1 13 6 10 1 13 7 7 17 17 17 14 10 9 9 9 8 7 5 4 2 3 4 3 2 3 4 5 5 5 5 5 5 8 9 9 8 9 10 10 12 13 12 12 13 13 13 12 12 14 14 14 13 15 18 16 16 18 16 18 18 18 17 17 16 15 15 16 17 17 16 14 14 15 17 15 10 7 7 6 5 4 5 6 7 8 10 9
1 2 3 1 3 2 2 1 5 6 6 6 11 14 4 3 3 14 17 17 14 12 11 8 8 7 6 6 5 4 5 3 1 2 3 4 5 5 5 4 4 5 7 7 7 8 9 9 11 12 13 14 14 14 12 12 11 12 14 13 15 17 18 15 16 16 17 20 18 19 17 16 16 17 16 16 16 17 17 16 16 15 15 16 16 13 8 7 6 5 4 4 6 7 9 9 8
7 9 9 10 5 5 5 12 5 5 8 7 4 19 8 3 2 7 10 9 11 10 11 9 9 8 7 6 5 6 3 2 2 2 3 4 5 5 4 4 4 6 9 9 8 7 9 10 11 11 11 12 13 14 12 13 13 13 14 12 14 17 17 15 16 17 20 17 19 18 18 18 18 18 17 17 18 15 15 15 16 15 15 14 15 16 11 8 7 5 4 4 4 7 9 10 9
Wind_Direction
303 299 256 244 151 121 34 7 62 317 65 53 137 48 193 28 124 58 38 4 39 280 165 6 43 13 87 189 148 91 36 44 320 118 79 273 210 38 325 341 346 353 346 308 148 141 152 142 140 119 21 7 209 158 180 206 221 202 204 220 226 227 231 232 229 228 231 236 229 230 232 232 231 232 234 235 240 242 243 242 230 233 246 256 264 268 271 274 274 272 270 262 255 227 183 185 188
285 305 291 187 200 103 292 140 102 42 40 47 3 86 10 343 50 91 82 82 159 252 241 71 37 46 351 167 121 80 33 14 29 105 140 283 263 320 357 340 343 355 351 319 150 147 152 175 161 133 60 353 332 272 186 203 208 212 207 217 228 233 233 233 231 236 239 239 232 228 238 238 229 235 237 241 242 246 245 246 242 227 233 244 254 264 268 270 272 272 268 262 255 226 189 186 191
310 356 348 38 21 111 250 40 63 71 85 67 353 39 325 50 80 107 110 113 127 224 21 26 110 47 12 41 58 92 120 34 25 46 141 329 19 345 338 341 349 360 2 345 337 132 180 160 161 153 155 325 331 314 281 201 206 202 223 228 233 240 240 231 227 233 248 250 243 231 232 239 249 258 252 242 248 248 251 254 253 243 234 240 251 259 264 267 266 267 267 262 256 231 190 190 193
312 243 139 64 337 26 65 28 106 118 115 161 67 330 52 98 43 129 139 132 99 86 38 27 78 242 88 47 82 98 68 32 26 351 25 8 346 300 324 349 354 9 13 4 4 11 354 103 142 132 162 351 326 320 318 304 248 218 210 213 232 239 240 245 260 271 251 249 264 244 228 241 243 261 261 257 250 245 250 254 256 257 254 252 255 259 261 265 263 260 259 259 254 241 192 189 195
353 314 161 84 107 356 75 197 130 104 71 172 127 286 47 77 22 53 141 121 90 81 56 65 61 328 61 46 3 59 297 213 41 27 37 335 323 304 333 4 16 22 19 11 16 19 21 29 25 6 357 343 328 317 317 313 307 281 247 226 230 235 236 241 239 243 246 228 238 253 247 258 262 260 269 268 270 260 256 260 255 247 248 255 258 262 264 265 265 261 258 257 253 246 197 193 193
300 6 352 93 106 184 45 33 23 78 190 138 97 156 96 63 37 65 179 69 77 65 122 71 129 337 44 39 43 82 342 41 315 4 47 354 327 318 358 21 31 28 18 20 24 13 16 32 32 21 5 358 341 333 325 321 307 294 288 275 248 244 232 235 231 233 243 235 241 242 244 244 246 251 255 250 245 252 250 255 256 248 246 249 255 260 265 268 270 275 290 280 255 249 202 195 192
316 37 4 22 354 62 140 108 144 130 7 111 138 151 111 29 353 67 56 76 349 58 3 97 96 87 106 156 79 64 41 8 34 333 359 290 328 359 18 32 38 33 21 16 17 21 13 22 24 23 14 356 348 337 326 318 313 302 291 282 275 269 253 235 234 241 253 248 238 248 247 245 251 252 247 251 252 250 251 256 261 257 250 249 252 259 265 270 275 280 269 280 293 276 213 199 192
15 86 300 87 303 56 12 123 179 156 52 99 164 115 87 44 5 63 17 106 215 84 338 327 70 89 56 56 101 36 23 31 69 321 315 325 7 23 26 26 30 21 19 13 7 8 15 16 13 11 0 346 338 332 328 320 319 313 306 292 280 270 263 255 243 244 243 239 235 244 249 254 261 254 254 252 252 256 250 247 250 252 257 258 255 261 269 271 276 277 262 270 270 283 232 203 196
326 77 337 64 18 13 50 302 68 60 109 82 69 111 112 122 91 65 14 345 89 88 28 313 91 88 136 78 79 350 33 341 340 13 31 33 27 35 38 37 38 31 27 23 20 12 9 7 1 357 351 340 334 330 326 326 322 319 319 313 302 284 273 266 259 254 249 244 243 244 246 260 264 267 279 282 269 260 253 247 245 252 259 261 264 272 274 273 275 278 277 270 271 270 245 207 197
351 95 330 109 129 349 309 290 69 96 113 120 110 98 110 104 42 94 76 35 98 106 360 310 79 92 101 71 169 26 1 337 290 36 28 34 38 42 43 40 44 41 34 28 27 23 17 15 13 6 353 338 337 331 327 323 321 318 318 321 318 309 296 287 277 261 257 253 255 243 244 245 256 260 249 229 240 251 264 265 259 257 260 266 269 272 273 273 273 275 276 267 262 265 252 220 201
352 2 149 61 29 18 47 293 118 101 110 147 60 65 84 332 93 36 62 112 65 100 326 33 63 104 93 93 80 227 337 341 31 25 14 29 38 40 42 38 41 44 39 30 26 26 22 20 16 14 12 6 352 334 332 326 324 317 316 315 313 313 311 306 297 292 283 279 270 240 237 244 249 250 242 237 237 243 249 257 260 258 255 256 260 263 268 270 272 278 279 275 270 268 258 219 210
12 360 13 96 207 153 242 146 143 90 54 33 35 313 35 104 78 33 10 70 70 64 63 41 129 128 89 104 66 28 359 25 27 20 19 30 35 35 39 35 35 38 42 36 28 25 20 16 17 13 11 8 5 358 348 332 323 321 316 310 310 307 306 306 303 299 298 291 274 265 253 249 250 250 243 243 241 242 247 250 254 255 254 246 250 255 258 258 266 272 273 270 257 256 257 227 214
84 84 67 87 222 154 261 89 167 125 42 335 181 239 109 62 81 116 86 125 83 83 26 335 209 85 84 86 57 16 31 11 19 19 25 31 31 32 33 30 25 32 35 33 33 22 18 15 10 8 5 5 3 360 355 353 347 329 316 317 319 316 311 306 303 295 288 281 287 279 263 254 254 253 257 248 239 243 246 242 241 246 243 244 246 250 249 248 251 259 264 266 262 254 251 226 210
101 187 112 248 46 290 104 149 75 89 14 236 263 39 118 110 290 136 120 64 30 82 25 338 75 118 94 88 36 29 24 2 22 22 29 29 30 31 30 26 22 20 23 30 28 22 16 13 11 7 3 2 2 359 356 352 349 347 341 334 327 318 311 306 302 296 288 285 281 278 273 261 252 250 247 245 246 245 243 237 235 238 239 238 243 248 246 244 242 241 251 256 249 242 247 235 211
75 137 85 124 313 53 280 89 146 123 145 169 332 88 77 347 121 65 97 117 31 42 144 33 284 64 320 101 38 37 19 12 25 22 29 23 25 27 23 22 24 20 20 23 25 23 16 10 9 7 5 2 359 359 355 351 349 346 343 340 335 329 323 317 308 299 295 289 283 279 270 267 261 251 242 241 241 238 237 232 230 233 234 237 240 237 242 239 237 239 246 252 242 236 240 231 211
162 80 89 77 298 47 282 91 54 95 133 134 26 105 80 354 75 78 326 101 95 27 55 41 32 79 80 79 96 68 44 36 30 33 33 28 19 24 21 17 20 18 18 23 23 23 16 11 7 7 3 3 360 355 353 352 349 347 343 339 336 332 325 320 314 307 299 294 289 282 277 268 257 254 250 240 232 232 233 228 228 231 231 233 233 232 233 238 238 239 245 250 240 230 230 222 199
40 84 37 28 313 92 271 85 110 42 147 11 5 43 113 132 325 83 55 74 81 58 65 41 76 62 74 94 99 61 43 45 37 36 34 29 23 22 17 19 13 18 13 16 19 18 15 10 4 6 2 360 358 356 351 349 345 346 346 341 336 332 329 320 312 308 303 299 291 286 274 268 265 265 260 261 253 250 239 235 230 229 230 231 229 227 226 229 231 240 248 253 243 228 223 215 200
63 49 103 349 214 52 244 100 102 144 107 280 61 106 107 112 338 301 78 74 94 83 79 77 66 65 79 79 63 58 48 47 40 43 36 35 25 24 20 9 13 11 7 5 8 16 14 6 1 3 360 358 356 357 352 346 342 345 342 341 340 335 330 328 318 308 302 295 293 293 291 271 255 255 252 250 245 248 248 236 234 234 234 233 228 222 221 222 220 225 235 245 245 229 218 209 203
85 54 84 226 204 236 122 165 60 90 106 163 146 79 108 199 128 337 79 56 105 85 72 80 71 55 53 49 47 48 50 50 46 49 46 40 34 32 24 10 10 6 6 360 358 7 9 2 2 1 359 356 355 356 350 345 345 343 341 339 337 334 331 328 327 320 309 301 295 290 289 290 279 256 241 237 238 238 237 232 226 228 233 234 229 221 219 216 215 220 223 230 232 224 203 194 173
264 104 317 248 224 271 101 87 101 120 152 54 13 57 91 295 75 6 104 96 65 78 121 72 83 84 62 51 45 46 48 49 46 44 42 40 38 34 27 16 8 2 354 352 344 352 7 3 355 353 356 355 354 356 352 347 346 344 342 341 339 334 329 328 327 324 322 311 305 297 287 280 280 279 262 236 235 239 240 238 236 232 234 237 227 221 220 210 206 212 218 223 214 202 195 193 180
301 70 192 244 254 22 322 63 115 102 91 93 12 25 57 355 11 103 147 70 44 70 67 121 118 105 88 65 56 46 50 49 45 43 40 32 28 35 35 18 5 347 340 330 351 358 359 357 352 351 356 354 354 357 354 351 343 344 344 342 339 336 333 331 326 321 317 320 316 310 302 295 285 279 270 271 249 230 234 238 243 240 231 231 224 229 229 214 203 205 219 211 174 179 187 197 187
84 208 221 224 347 8 281 78 76 90 73 71 59 67 185 131 36 31 100 111 123 119 105 100 106 107 100 91 79 69 61 59 55 53 49 40 35 25 23 12 0 357 347 360 345 343 353 353 349 345 360 352 352 357 353 348 343 346 346 341 338 335 334 331 327 322 319 315 316 315 312 306 302 290 286 272 274 269 245 229 235 231 226 227 209 215 215 202 202 203 198 192 193 189 192 197 194
331 309 275 286 169 201 292 48 17 82 50 46 63 203 51 81 74 50 79 104 129 114 111 106 102 102 107 101 82 61 54 52 51 47 39 31 17 17 27 21 6 0 345 336 330 346 344 352 345 344 358 351 349 351 351 349 339 341 339 336 337 333 332 330 329 328 327 320 312 312 313 313 310 304 297 289 273 262 259 255 232 224 226 219 206 208 212 201 193 197 196 193 190 191 198 204 195
125 241 287 286 340 308 319 70 72 92 98 43 214 356 112 122 90 56 94 110 117 107 103 100 101 99 91 81 72 76 65 57 46 44 44 31 17 4 4 16 353 341 357 343 341 341 343 346 343 344 348 349 347 346 347 344 332 335 332 332 332 327 327 325 330 333 327 325 321 315 310 308 306 309 303 295 289 280 268 259 258 232 215 212 202 208 210 203 193 191 198 196 190 198 200 203 197
151 264 259 260 335 272 302 34 44 94 123 109 44 26 186 138 135 110 111 127 118 114 101 96 95 91 84 87 87 78 66 45 39 27 27 28 18 357 349 350 354 349 359 348 332 339 339 340 344 344 347 350 347 342 343 337 331 331 329 331 329 327 323 327 333 328 327 329 332 329 327 319 315 307 304 302 295 285 281 269 260 256 234 214 200 205 206 205 206 191 193 194 192 196 199 201 198
195 208 255 306 277 306 270 12 172 146 113 56 45 43 98 119 104 57 147 140 133 118 103 102 94 89 93 100 95 86 74 69 49 31 15 358 357 7 349 336 345 359 337 332 336 331 332 345 346 343 348 349 346 347 342 337 335 330 331 329 327 326 323 324 327 323 326 334 332 333 329 323 320 317 313 307 302 294 284 275 263 255 250 238 209 206 199 200 197 192 190 190 189 191 195 198 195
189 301 250 287 278 323 310 200 295 186 132 79 80 114 140 179 105 191 195 167 138 110 109 102 102 105 107 101 97 100 97 79 70 44 17 359 341 15 343 332 350 338 332 340 337 336 328 346 346 342 346 351 351 349 345 339 336 336 335 333 330 328 324 323 325 323 331 334 329 327 326 328 325 323 320 318 312 305 296 287 277 267 253 238 223 210 199 197 192 187 185 186 188 187 194 193 192
23 357 348 322 290 272 287 275 275 155 284 119 120 202 169 209 67 178 164 174 142 121 117 115 114 121 115 107 105 122 104 101 73 53 32 9 357 350 337 326 320 330 336 332 326 322 333 339 345 342 348 351 350 345 342 339 336 334 333 332 331 328 327 324 321 321 325 325 326 324 325 323 321 318 318 316 312 307 304 295 281 268 259 250 237 218 201 199 190 188 187 186 185 183 185 190 195
302 47 328 306 335 334 253 213 244 165 265 50 215 105 158 213 204 156 155 147 135 125 127 130 131 130 130 128 124 94 89 92 65 50 21 329 316 297 319 295 295 324 306 310 320 328 332 339 345 342 345 345 344 340 337 332 329 329 328 327 324 323 323 319 318 320 319 321 319 320 319 318 318 317 315 311 309 310 310 308 299 279 266 258 251 248 226 197 191 185 188 183 181 178 177 187 190
60 60 161 352 11 328 266 249 122 145 255 57 53 311 279 231 151 152 155 144 133 125 135 134 135 141 146 140 120 96 73 73 66 63 349 305 302 283 302 310 309 333 332 328 334 342 335 341 340 341 347 348 344 339 336 333 330 328 326 324 320 320 317 314 313 313 312 312 314 313 313 312 313 313 312 309 311 314 311 307 302 297 279 260 249 245 236 223 199 189 184 181 183 178 181 182 183
171 251 91 162 81 269 261 187 176 170 189 122 94 246 269 162 159 161 164 152 143 142 146 148 145 139 131 131 119 118 104 100 118 65 330 306 293 295 314 335 354 356 348 350 358 347 348 350 352 352 350 347 343 339 338 333 329 326 323 321 320 319 315 311 308 306 306 307 309 306 305 306 305 307 309 310 311 310 312 310 308 305 298 276 260 251 248 221 199 191 181 182 183 186 184 184 186
316 41 294 322 173 275 296 238 161 193 281 133 87 257 252 182 179 177 165 151 143 147 158 156 150 144 143 132 120 111 101 74 23 286 323 323 335 352 358 356 0 2 0 359 358 355 351 350 350 349 345 342 342 338 333 328 325 322 319 316 313 312 310 309 307 303 303 304 304 303 302 299 298 300 305 308 303 313 317 314 311 310 307 296 270 262 247 234 218 190 187 180 177 188 182 186 191
347 142 267 300 323 261 356 235 212 177 143 291 169 228 87 233 212 189 181 152 151 146 154 152 146 140 135 126 121 108 93 2 346 304 340 6 5 10 360 359 3 3 359 1 355 351 349 347 346 344 340 336 332 331 328 326 323 320 318 314 311 310 309 307 305 303 299 298 298 299 299 296 292 294 297 301 303 313 315 314 313 310 309 305 286 267 254 239 234 200 199 194 185 179 184 184 188
319 21 227 238 306 321 308 311 294 224 168 231 226 232 237 200 176 189 184 160 150 148 157 154 151 148 144 139 128 137 143 179 301 316 7 24 19 6 360 359 359 358 356 353 348 348 344 340 340 335 330 329 331 332 331 328 321 317 315 314 310 307 306 303 300 298 295 294 295 294 294 293 288 288 292 292 294 304 307 309 310 309 308 305 299 280 263 247 232 210 195 193 189 182 185 187 189
249 302 319 310 331 260 236 296 268 150 257 213 265 258 268 203 177 188 178 164 152 160 161 158 155 150 151 143 148 152 162 179 276 94 35 35 21 359 357 351 350 351 335 329 340 343 342 335 335 331 328 326 328 330 329 325 321 316 312 313 312 309 305 302 298 297 296 293 291 290 288 287 286 285 285 285 287 295 302 306 306 306 303 300 300 302 284 260 249 230 200 193 193 190 185 187 186
228 225 223 232 280 288 277 243 259 176 203 236 239 235 264 163 194 197 177 173 156 165 156 156 155 153 151 153 158 151 178 165 159 86 46 39 9 347 328 335 345 329 318 315 338 350 344 338 334 330 326 325 328 329 328 324 319 318 318 319 316 312 305 300 300 296 294 293 290 289 286 285 284 285 282 278 282 288 296 300 302 301 299 294 292 295 295 282 257 239 224 196 190 196 190 187 182
230 268 253 260 256 276 274 273 257 148 300 234 234 243 247 205 202 201 185 149 154 162 167 166 164 155 156 156 156 177 160 152 155 107 61 51 328 316 323 338 323 313 297 328 359 354 346 335 334 334 330 327 334 332 330 327 322 318 316 316 313 311 309 304 299 296 291 290 290 290 289 286 286 285 279 273 275 282 286 290 295 298 294 290 284 285 292 295 299 279 241 205 186 184 193 189 186
212 246 267 277 251 267 257 263 197 243 156 289 268 266 262 255 211 202 167 161 181 174 173 170 162 163 162 161 169 148 179 220 33 31 1 346 316 321 336 347 332 337 334 355 359 345 336 330 335 331 328 329 331 331 327 323 320 316 316 317 314 310 309 306 302 301 298 293 289 288 288 288 286 284 280 272 267 270 282 287 290 293 294 286 278 280 285 288 289 291 274 254 195 181 190 183 175
267 227 260 308 272 246 275 249 164 210 343 254 257 255 253 249 252 181 179 188 183 183 171 168 157 162 165 165 170 179 103 93 326 272 296 300 314 327 350 325 309 302 323 353 350 350 342 345 340 336 332 333 332 332 332 323 316 313 315 311 310 307 302 301 300 301 302 299 295 291 288 286 283 280 277 272 268 269 270 280 283 288 290 287 277 280 287 289 297 297 282 238 213 209 190 180 173
232 282 295 250 242 337 305 284 310 296 105 267 270 276 265 252 264 190 194 178 164 169 158 162 159 161 168 179 172 157 160 206 243 237 258 297 305 325 329 314 302 330 349 353 3 356 350 346 345 340 336 333 331 332 329 321 314 312 310 307 311 313 315 314 309 307 306 305 303 303 299 293 287 279 275 270 266 266 262 264 276 285 288 288 279 271 281 287 289 294 296 266 223 190 193 191 182
256 219 229 251 264 233 201 253 334 313 298 288 292 279 267 214 180 199 179 127 133 157 138 153 170 168 176 157 143 157 165 191 221 262 290 315 333 317 313 308 313 326 342 3 2 358 351 349 344 341 335 331 330 331 330 323 321 323 324 321 316 310 303 303 306 305 309 310 308 303 301 297 289 283 275 271 267 265 259 254 263 279 287 289 282 268 259 265 274 281 290 295 270 216 191 185 190
297 234 208 233 204 241 279 314 6 356 313 259 100 320 270 238 191 184 162 146 165 183 157 171 175 183 158 147 172 186 173 190 178 229 273 303 306 320 323 313 312 316 359 3 5 357 354 346 343 338 330 327 330 329 327 331 334 330 327 326 326 324 316 314 313 314 316 311 308 307 305 304 298 289 279 271 268 268 263 250 254 270 283 287 283 274 255 264 268 271 276 286 291 264 204 186 183
273 267 176 169 175 220 258 300 29 295 250 293 126 234 288 89 182 184 183 177 185 186 178 185 184 188 170 173 163 165 174 206 301 332 325 338 323 326 308 309 305 349 355 359 3 356 352 343 338 334 330 329 329 327 334 339 332 327 324 321 316 312 309 304 305 305 302 301 300 303 306 303 298 293 286 275 269 266 264 252 247 258 271 280 279 276 270 260 272 273 272 275 283 294 262 198 182
243 243 141 143 174 246 253 245 208 249 35 297 274 165 267 284 242 204 176 177 190 191 195 191 192 182 174 167 173 156 174 187 154 278 307 328 311 287 295 297 318 355 354 3 355 351 343 337 334 333 330 327 326 330 336 336 329 325 322 319 315 314 313 308 308 305 301 298 300 306 306 303 302 291 284 276 268 266 264 255 245 254 266 272 274 273 269 269 269 276 284 282 292 290 288 241 192
226 220 154 215 223 242 250 230 251 250 3 281 222 197 258 254 274 167 154 180 211 207 194 195 188 183 166 170 165 164 182 173 158 45 335 300 288 290 287 301 319 1 4 354 345 338 332 329 330 330 326 324 327 334 332 327 325 321 316 313 312 311 310 306 305 306 309 310 304 305 303 299 296 291 284 280 271 265 261 251 245 249 258 266 272 270 271 270 272 287 293 297 294 290 283 271 215
284 193 183 251 257 255 229 250 251 313 186 270 237 176 212 271 184 98 190 214 214 205 191 188 184 175 170 164 177 169 176 179 139 158 246 270 270 272 263 281 351 351 342 341 333 332 329 328 327 327 324 324 327 331 327 320 318 317 313 312 312 312 313 310 308 304 304 304 300 300 297 294 293 289 285 283 277 269 261 249 242 246 248 256 261 263 265 274 280 279 282 283 287 288 289 286 264
143 81 325 333 315 263 223 189 188 33 248 247 210 194 183 281 219 172 161 211 207 170 168 182 183 169 166 165 170 157 159 176 162 251 267 251 262 259 270 350 339 342 340 339 332 330 327 327 324 322 321 323 328 326 321 316 316 317 315 316 315 313 311 307 307 305 307 302 294 292 297 301 299 294 301 302 291 279 266 251 236 234 238 245 250 259 264 273 273 267 266 273 280 286 292 286 277
90 15 52 344 301 13 67 345 66 144 266 259 212 194 198 211 279 207 215 354 165 169 176 177 172 168 170 168 165 159 171 167 208 241 254 261 256 265 344 356 348 339 342 334 325 325 324 321 321 319 319 323 324 321 316 312 314 315 314 314 313 311 308 307 305 303 306 301 305 311 314 309 311 312 312 310 306 304 292 272 247 233 233 234 247 252 258 261 264 261 259 262 271 278 284 286 286
81 54 37 7 290 7 330 37 291 200 233 258 198 168 306 232 235 209 217 227 187 173 172 169 162 162 166 166 160 176 160 178 207 226 241 245 274 344 347 338 342 342 331 323 320 321 318 316 317 317 316 323 321 318 312 313 315 317 318 316 313 312 309 306 301 299 300 304 308 305 305 305 307 305 308 308 312 319 317 303 281 262 242 228 236 244 248 252 261 264 259 256 264 270 277 283 291
111 147 148 118 319 343 280 243 250 290 296 253 104 54 257 272 296 213 191 197 170 144 143 147 148 155 162 160 166 162 176 195 205 222 233 283 341 318 313 323 332 324 319 317 316 318 315 313 315 315 311 317 315 311 312 314 316 316 316 314 313 315 313 310 307 304 303 301 300 300 303 301 302 302 301 297 299 306 305 304 296 273 251 236 234 245 249 250 255 259 258 248 255 266 271 280 283
204 146 145 187 163 188 281 257 259 266 250 271 249 31 231 113 251 319 156 135 125 127 130 138 144 155 156 156 164 160 195 215 211 227 311 338 315 311 312 314 315 315 311 311 312 314 313 311 314 313 311 314 313 308 311 314 314 315 314 312 313 313 309 307 308 304 302 303 301 297 295 297 300 301 298 296 296 298 298 303 303 285 261 245 235 236 246 250 252 256 256 255 239 240 264 270 284
212 163 86 104 230 137 238 193 235 306 320 300 171 214 208 212 328 49 112 114 111 131 134 136 151 150 146 148 164 186 208 209 225 352 324 311 303 308 313 316 302 301 308 311 314 313 310 308 308 306 306 309 310 309 313 314 312 313 314 312 312 311 307 305 300 302 300 302 301 296 294 296 298 300 297 293 291 293 299 305 309 300 272 254 235 231 241 248 251 257 263 264 260 234 257 274 283
166 112 207 210 171 153 290 319 132 17 20 261 165 281 268 356 154 103 135 125 144 147 151 148 159 162 150 171 182 202 206 197 354 296 293 291 305 297 283 287 299 303 309 313 312 309 302 303 306 306 307 307 306 308 308 310 310 313 314 314 314 315 313 309 306 303 303 300 302 300 297 297 296 296 299 301 297 294 297 303 305 305 289 260 239 225 232 243 246 257 269 278 282 275 263 274 280
104 209 239 262 145 116 153 239 335 285 233 270 134 241 268 120 278 184 175 168 181 179 172 169 169 165 163 183 186 188 141 253 245 254 263 265 270 279 283 286 294 305 312 316 313 307 296 290 294 302 305 309 310 312 314 315 317 316 315 315 314 313 311 302 303 304 301 299 298 299 299 297 297 299 298 295 293 300 302 303 302 302 300 283 259 237 228 239 245 251 265 276 285 292 288 282 279
188 186 275 111 274 305 231 85 267 265 254 274 260 225 250 185 215 164 207 191 194 194 182 170 174 173 174 184 181 199 17 275 248 260 272 296 301 294 295 294 289 298 310 309 306 303 298 295 296 299 300 301 304 309 311 311 313 312 310 310 312 314 309 303 301 300 300 296 295 295 295 296 296 295 294 295 301 304 303 301 300 301 305 299 273 254 228 239 237 249 260 275 284 289 289 285 283
67 22 345 248 106 228 174 198 204 182 270 306 273 71 268 158 213 183 196 200 187 181 176 190 183 179 172 178 171 165 224 216 232 260 288 279 285 288 294 290 294 305 312 310 306 304 302 303 302 301 299 301 303 304 306 305 307 305 304 304 303 304 307 305 300 303 300 296 295 295 294 292 294 295 292 295 301 300 299 299 300 304 306 307 294 266 247 235 235 238 253 278 285 286 286 284 286
153 145 238 321 225 227 140 269 158 205 256 244 291 295 272 207 171 175 195 189 187 173 181 187 182 176 171 168 168 198 199 211 229 257 269 281 288 297 294 280 284 302 306 306 302 302 302 305 304 304 306 307 307 307 307 302 302 299 301 302 305 311 309 302 299 298 301 300 298 296 295 294 295 295 298 298 297 296 297 299 301 302 304 303 304 288 268 252 236 231 243 265 284 285 284 285 279
184 175 210 197 189 255 258 263 101 216 224 241 230 262 256 253 168 177 180 176 169 183 173 176 173 166 166 177 184 183 192 213 208 256 282 289 292 292 286 279 293 309 313 311 306 301 309 308 305 305 304 304 306 308 308 305 304 302 304 302 303 310 305 302 300 302 298 298 298 295 296 296 295 296 297 295 295 295 296 298 298 296 295 295 297 297 278 262 254 238 242 256 278 283 288 286 283